• In Czech Republic
  • List of Countries
  • For 7 days
  • Water Temperature
  • Satellite Maps
  • Weather Map
  • Weather Widgets
  • user-avatar
    Login

    Hourly Weather Gorodenka

    Today, 19 September, Wednesday

    Time Temperature Precipitation Wind Pressure Humidity
    00:00 +17°C° 0 mm 2 mps 742 mmHg 87%
    01:00 +18°C° 0 mm 1 mps 742 mmHg 87%
    02:00 +18°C° 0 mm 1 mps 742 mmHg 88%
    03:00 +16°C° 0 mm 1 mps 742 mmHg 90%
    04:00 +15°C° 0 mm 0 mps 742 mmHg 92%
    05:00 +14°C° 0 mm 0 mps 742 mmHg 94%
    06:00 +14°C° 0 mm 0 mps 742 mmHg 95%
    07:00 +14°C° 0 mm 0 mps 743 mmHg 95%
    08:00 +16°C° 0 mm 1 mps 743 mmHg 97%
    09:00 +17°C° 0 mm 0 mps 743 mmHg 96%
    10:00 +20°C° 0 mm 1 mps 743 mmHg 91%
    11:00 +22°C° 0 mm 1 mps 743 mmHg 84%
    12:00 +23°C° 0 mm 1 mps 743 mmHg 78%
    13:00 +24°C° 0 mm 1 mps 743 mmHg 71%
    14:00 +25°C° 0 mm 1 mps 743 mmHg 67%
    15:00 +25°C° 0 mm 1 mps 743 mmHg 63%
    16:00 +25°C° 0 mm 1 mps 743 mmHg 63%
    17:00 +23°C° 0 mm 0 mps 743 mmHg 69%
    18:00 +22°C° 0 mm 0 mps 743 mmHg 73%
    19:00 +23°C° 0 mm 1 mps 743 mmHg 74%
    20:00 +22°C° 0 mm 1 mps 743 mmHg 77%
    21:00 +22°C° 0 mm 1 mps 743 mmHg 77%
    22:00 +19°C° 0 mm 0 mps 743 mmHg 78%
    23:00 +19°C° 0 mm 0 mps 743 mmHg 79%

    Tomorrow, 20 September, Thursday

    Time Temperature Precipitation Wind Pressure Humidity
    00:00 +20°C° 0 mm 1 mps 743 mmHg 80%
    01:00 +20°C° 0 mm 1 mps 743 mmHg 80%
    02:00 +17°C° 0 mm 0 mps 743 mmHg 82%
    03:00 +17°C° 0 mm 0 mps 743 mmHg 84%
    04:00 +19°C° 0 mm 1 mps 742 mmHg 86%
    05:00 +18°C° 0 mm 1 mps 742 mmHg 90%
    06:00 +18°C° 0 mm 1 mps 742 mmHg 92%
    07:00 +18°C° 0 mm 1 mps 743 mmHg 93%
    08:00 +18°C° 0 mm 1 mps 743 mmHg 95%
    09:00 +20°C° 0 mm 1 mps 743 mmHg 96%
    10:00 +21°C° 0 mm 1 mps 743 mmHg 95%
    11:00 +22°C° 0 mm 1 mps 743 mmHg 93%
    12:00 +23°C° 0 mm 1 mps 743 mmHg 88%
    13:00 +24°C° 0 mm 1 mps 743 mmHg 83%
    14:00 +25°C° 0 mm 1 mps 743 mmHg 82%
    15:00 +25°C° 0 mm 2 mps 743 mmHg 81%
    16:00 +25°C° 0 mm 2 mps 742 mmHg 81%
    17:00 +24°C° 0 mm 2 mps 742 mmHg 85%
    18:00 +23°C° 0 mm 2 mps 742 mmHg 92%
    19:00 +22°C° 0 mm 1 mps 742 mmHg 92%
    20:00 +21°C° 0 mm 1 mps 742 mmHg 97%
    21:00 +21°C° 0 mm 1 mps 742 mmHg 98%
    22:00 +19°C° 0 mm 2 mps 742 mmHg 99%
    23:00 +18°C° 0 mm 2 mps 742 mmHg 100%

    Day after tomorrow, 21 September, Friday

    Time Temperature Precipitation Wind Pressure Humidity
    00:00 +18°C° 0 mm 2 mps 741 mmHg 100%
    01:00 +17°C° 0 mm 2 mps 741 mmHg 100%
    02:00 +17°C° 0 mm 2 mps 741 mmHg 100%
    03:00 +18°C° 0 mm 1 mps 741 mmHg 100%
    04:00 +18°C° 0 mm 1 mps 741 mmHg 100%
    05:00 +17°C° 0 mm 2 mps 741 mmHg 100%
    06:00 +17°C° 0 mm 2 mps 741 mmHg 100%
    07:00 +17°C° 0 mm 2 mps 741 mmHg 100%
    08:00 +18°C° 0 mm 1 mps 741 mmHg 100%
    09:00 +17°C° 0 mm 2 mps 741 mmHg 100%
    10:00 +17°C° 0 mm 2 mps 741 mmHg 100%
    11:00 +18°C° 0 mm 2 mps 741 mmHg 100%
    12:00 +19°C° 0 mm 2 mps 741 mmHg 98%
    13:00 +20°C° 0 mm 2 mps 741 mmHg 97%
    14:00 +21°C° 0 mm 2 mps 741 mmHg 96%
    15:00 +22°C° 0 mm 3 mps 740 mmHg 93%
    16:00 +22°C° 0 mm 3 mps 740 mmHg 94%
    17:00 +22°C° 0 mm 3 mps 740 mmHg 95%
    18:00 +21°C° 0 mm 4 mps 739 mmHg 98%
    19:00 +21°C° 0 mm 3 mps 739 mmHg 99%
    20:00 +20°C° 0 mm 4 mps 739 mmHg 99%
    21:00 +19°C° 0 mm 3 mps 739 mmHg 100%
    22:00 +19°C° 0 mm 3 mps 738 mmHg 100%
    23:00 +18°C° 0 mm 3 mps 738 mmHg 100%

    22 September, Saturday

    Time Temperature Precipitation Wind Pressure Humidity
    00:00 +18°C° 0 mm 3 mps 738 mmHg 100%
    01:00 +17°C° 0 mm 2 mps 737 mmHg 100%
    02:00 +18°C° 0 mm 1 mps 737 mmHg 100%
    03:00 +16°C° 0 mm 1 mps 737 mmHg 100%
    04:00 +16°C° 0 mm 1 mps 737 mmHg 100%
    05:00 +15°C° 0 mm 1 mps 737 mmHg 100%
    06:00 +14°C° 0 mm 0 mps 737 mmHg 100%
    07:00 +15°C° 0 mm 1 mps 737 mmHg 100%
    08:00 +15°C° 0 mm 1 mps 737 mmHg 100%
    09:00 +16°C° 0 mm 1 mps 737 mmHg 100%
    10:00 +19°C° 0 mm 1 mps 737 mmHg 94%
    11:00 +21°C° 0 mm 1 mps 737 mmHg 94%
    12:00 +21°C° 0 mm 2 mps 737 mmHg 85%
    13:00 +23°C° 0 mm 1 mps 736 mmHg 82%
    14:00 +22°C° 0 mm 4 mps 736 mmHg 87%

    23 September, Sunday

    Time Temperature Precipitation Wind Pressure Humidity

    24 September, Monday

    Time Temperature Precipitation Wind Pressure Humidity
    Show more